[[{"header":{"parameterUnit":"m.s-1","parameterCategory":1,"la1":30.2991,"la2":30.254,"lo1":-89.0895,"lo2":-89.0444,"dy":0.0017,"dx":0.0017,"nx":28,"ny":28,"refTime":"2023-08-11T21:00:00:Z","depth":0,"parameterNumber":2,"parameterNumberName":"U-component_of_WINDS"},"data":[0,0,0,0,0,0,0,0,0,0,0,0,0,0,0,0,0,0,0,0,0,0,0,0,0,0,0,0,0,0,0,0,0,0,0,0,0,0,0,0,0,0,0,0,0,0,0,0,0,0,0,0,0,0,0,0,0,0,1.7099,1.7101,0,1.7282,1.7284,1.7286,1.7346,1.7346,1.7345,1.7344,1.7532,1.7538,1.7543,0,0,0,0,0,0,0,0,0,0,0,0,0,1.6802,1.6808,1.7099,1.7101,1.7103,1.7281,1.7284,1.7286,1.7346,1.7346,1.7345,1.7344,1.753,1.7537,1.7544,0,0,0,0,0,0,0,0,0,0,0,0,0,1.6953,1.6809,1.7098,1.7155,1.7162,1.7281,1.7284,1.7287,1.7347,1.7345,1.7344,1.7343,1.7528,1.7536,1.7545,1.7621,0,0,1.7571,1.7575,0,0,0,0,0,0,0,0,1.6944,1.6964,1.7144,1.7151,1.7159,1.729,1.7248,1.7399,1.7347,1.7276,1.7344,1.7343,1.7452,1.7467,1.7504,1.763,1.7638,1.7572,1.7577,1.7581,1.7583,0,0,0,0,0,0,0,1.6934,1.6956,1.7171,1.7147,1.7156,1.7171,1.7191,1.7277,1.7369,1.7282,1.7287,1.7308,1.7456,1.7496,1.7509,1.7641,1.7571,1.7579,1.7584,1.7588,1.7839,1.7841,0,0,0,0,0,0,1.6914,1.6947,1.7165,1.7176,1.7046,1.7177,1.72,1.7249,1.7368,1.7385,1.7309,1.731,1.7482,1.7499,1.7516,1.7613,1.7581,1.7589,1.7594,1.7838,1.784,1.7841,0,0,0,0,0,0,1.6907,1.6932,1.7158,1.7063,1.7093,1.7184,1.7239,1.7253,1.7293,1.7388,1.7405,1.7332,1.7481,1.7504,1.7595,1.7621,1.7593,1.76,1.7836,1.7838,1.7841,1.7808,0,0,0,0,0,0,1.6898,1.693,1.6959,1.7063,1.7098,1.7233,1.724,1.7258,1.7307,1.7311,1.7414,1.743,1.7482,1.7581,1.7603,1.7632,1.7607,1.7834,1.7837,1.784,1.7808,1.7809,1.7811,0,0,0,0,0,1.6887,1.6943,1.6961,1.6987,1.7137,1.7234,1.7254,1.7312,1.7309,1.734,1.7401,1.7427,1.7614,1.759,1.7615,1.7647,1.7833,1.7836,1.784,1.7807,1.7809,1.7811,0,0,0,0,0,0,1.684,1.6958,1.6978,1.7069,1.7141,1.7244,1.7285,1.7313,1.7387,1.7388,1.7457,1.748,1.7566,1.7616,1.7587,1.7728,1.7725,1.7733,1.7691,1.7694,1.7696,1.7682,1.7614,0,0,0,0,0,1.684,1.6909,1.7009,1.7079,1.7114,1.7193,1.7238,1.7277,1.7354,1.7385,1.7453,1.7528,1.7603,1.7652,1.7727,1.7815,1.7839,1.785,1.7851,1.7852,1.7859,1.7909,1.7915,1.7853,1.7853,1.7853,0,0,1.684,1.6913,1.6953,1.7071,1.7132,1.7202,1.7218,1.7292,1.7345,1.7396,1.7486,1.7539,1.7627,1.7717,1.776,1.7761,1.7881,1.7857,1.7857,1.7863,1.7914,1.7919,1.7925,1.7855,1.7855,1.7854,0,0,1.6877,1.694,1.7006,1.7066,1.7157,1.721,1.7225,1.7325,1.7362,1.7453,1.7493,1.7557,1.7686,1.7747,1.7795,1.7856,1.7883,1.7879,1.7887,1.7936,1.7941,1.7946,1.7967,1.7974,1.7885,1.7885,1.7885,0,1.6867,1.6974,1.7036,1.7108,1.7159,1.7209,1.7276,1.7332,1.7443,1.7477,1.7477,1.764,1.7703,1.7808,1.7823,1.786,1.788,1.7867,1.7935,1.7941,1.7946,1.7968,1.7975,1.7884,1.7884,1.7884,1.7884,0,1.6956,1.703,1.7073,1.7179,1.7235,1.7304,1.7376,1.7426,1.746,1.7512,1.7605,1.7682,1.7773,1.7802,1.7836,1.7912,1.791,1.7922,1.792,1.795,1.7971,1.798,1.7883,1.7883,1.7883,1.7884,0,0,1.6967,1.7107,1.7122,1.7171,1.7276,1.7334,1.7406,1.7496,1.7537,1.7612,1.7674,1.7782,1.7794,1.7848,1.789,1.7933,1.7976,1.794,1.7943,1.7944,1.8065,1.8055,1.8064,1.7995,1.7997,1.7998,1.8058,0,1.7017,1.7148,1.7206,1.731,1.7379,1.7428,1.7491,1.7562,1.7613,1.768,1.7737,1.7812,1.7822,1.7855,1.79,1.7961,1.8002,1.7958,1.8053,1.8056,1.8029,1.8075,1.8065,1.8117,1.8066,1.8068,1.8069,0,1.7093,1.7169,1.728,1.7377,1.7408,1.7463,1.7551,1.7614,1.7696,1.773,1.7791,1.7831,1.7909,1.7902,1.8011,1.798,1.8022,1.8059,1.8062,1.8073,1.8064,1.8086,1.8135,1.8142,1.8083,1.8082,1.8081,0,1.7089,1.7219,1.7302,1.7343,1.7459,1.7496,1.7546,1.7627,1.7678,1.7754,1.7788,1.7872,1.7918,1.7982,1.8044,1.8034,1.8146,1.8145,1.8177,1.8176,1.8198,1.8196,1.8253,1.8226,1.8226,1.8226,1.8226,0,1.7139,1.7205,1.7302,1.7353,1.7429,1.7495,1.7568,1.7622,1.7694,1.7756,1.7804,1.7862,1.794,1.8008,1.8057,1.8139,1.816,1.819,1.8202,1.8185,1.8181,1.8214,1.8211,1.8228,1.8227,1.8227,1.8227,0,1.7147,1.7215,1.7309,1.7411,1.7439,1.749,1.7577,1.7629,1.7683,1.7761,1.7784,1.7868,1.7951,1.8019,1.8127,1.816,1.8246,1.826,1.8218,1.8224,1.8252,1.8248,1.8332,1.8346,1.8309,1.8309,1.8309,0,1.7174,1.7226,1.7334,1.7379,1.7429,1.7501,1.7553,1.7621,1.7673,1.7771,1.7811,1.7897,1.7969,1.8098,1.817,1.8253,1.8269,1.8293,1.8282,1.8264,1.8269,1.8265,1.8271,1.8293,1.8294,1.8294,1.8294,0,1.7214,1.7245,1.7318,1.7403,1.7464,1.7534,1.7605,1.764,1.7721,1.7777,1.7862,1.7918,1.8028,1.8113,1.8204,1.8256,1.8288,1.8297,1.8308,1.8292,1.8265,1.8279,1.8219,1.8294,1.8294,1.8294,1.8294,1.8294,1.7232,1.7281,1.7365,1.7444,1.7505,1.7571,1.7625,1.7686,1.7758,1.7853,1.7889,1.7976,1.8058,1.8183,1.8236,1.8305,1.8309,1.8326,1.833,1.8333,1.833,1.8254,1.8322,1.8322,1.8322,1.8322,1.8322,0,1.7275,1.7331,1.7404,1.7503,1.7566,1.7591,1.7672,1.7723,1.7798,1.7872,1.7942,1.804,1.8123,1.8201,1.8288,1.8328,1.8345,1.8348,1.8346,1.8357,1.8322,1.8303,1.8333,1.8333,1.8333,1.8333,1.8333,1.8333,1.7304,1.7388,1.7429,1.7544,1.76,1.7686,1.773,1.7791,1.785,1.7957,1.8026,1.8076,1.8152,1.8245,1.8322,1.8343,1.8372,1.8372,1.8396,1.8362,1.836,1.8358,1.834,1.8378,1.8378,1.8426,1.8426,1.8427]},{"header":{"parameterUnit":"m.s-1","parameterCategory":1,"la1":30.2991,"la2":30.254,"lo1":-89.0895,"lo2":-89.0444,"dy":0.0017,"dx":0.0017,"nx":28,"ny":28,"refTime":"2023-08-11T21:00:00:Z","depth":0,"parameterNumber":3,"parameterNumberName":"V-component_of_WINDS"},"data":[0,0,0,0,0,0,0,0,0,0,0,0,0,0,0,0,0,0,0,0,0,0,0,0,0,0,0,0,0,0,0,0,0,0,0,0,0,0,0,0,0,0,0,0,0,0,0,0,0,0,0,0,0,0,0,0,0,0,5.6249,5.6249,0,5.6303,5.6304,5.6304,5.626,5.6259,5.6257,5.6255,5.6303,5.6306,5.6309,0,0,0,0,0,0,0,0,0,0,0,0,0,5.6098,5.6101,5.6249,5.6249,5.625,5.6303,5.6304,5.6305,5.6261,5.6259,5.6256,5.6254,5.6302,5.6306,5.6309,0,0,0,0,0,0,0,0,0,0,0,0,0,5.6159,5.6102,5.6248,5.6235,5.6234,5.6303,5.6304,5.6305,5.6261,5.6258,5.6256,5.6253,5.6301,5.6305,5.631,5.6393,0,0,5.6323,5.6325,0,0,0,0,0,0,0,0,5.6156,5.6165,5.6236,5.6236,5.6235,5.6272,5.6268,5.6334,5.6262,5.6251,5.6255,5.6252,5.6295,5.6299,5.6315,5.6395,5.6397,5.6324,5.6326,5.6328,5.633,0,0,0,0,0,0,0,5.6152,5.6162,5.627,5.6237,5.6237,5.6223,5.6229,5.6281,5.6287,5.6251,5.6248,5.6256,5.6294,5.6311,5.6316,5.6398,5.6324,5.6328,5.633,5.6332,5.6547,5.655,0,0,0,0,0,0,5.615,5.6159,5.6268,5.6272,5.6188,5.6228,5.6234,5.6263,5.6286,5.6288,5.6258,5.6254,5.6305,5.6311,5.6318,5.6416,5.6328,5.6333,5.6335,5.6544,5.6548,5.6551,0,0,0,0,0,0,5.6147,5.616,5.6266,5.6215,5.6227,5.6234,5.6266,5.6266,5.6283,5.6292,5.6292,5.6275,5.6303,5.6311,5.6375,5.6417,5.6335,5.6339,5.654,5.6545,5.6549,5.6614,0,0,0,0,0,0,5.6143,5.6159,5.6193,5.6216,5.623,5.6325,5.6269,5.6269,5.6292,5.6287,5.6308,5.6309,5.6301,5.6368,5.6379,5.6422,5.6342,5.6537,5.6543,5.6548,5.6608,5.662,5.663,0,0,0,0,0,5.6138,5.6207,5.6195,5.6208,5.6272,5.6327,5.6335,5.6327,5.6296,5.6328,5.6333,5.6308,5.6411,5.6375,5.6387,5.6432,5.6534,5.6541,5.6547,5.6603,5.6618,5.663,0,0,0,0,0,0,5.6185,5.621,5.6196,5.6276,5.63,5.632,5.636,5.6343,5.6375,5.6368,5.6355,5.636,5.6427,5.6435,5.6395,5.6513,5.6467,5.6476,5.6505,5.6519,5.653,5.6526,5.6346,0,0,0,0,0,5.6206,5.6251,5.6269,5.6337,5.635,5.6354,5.6377,5.6369,5.6393,5.6402,5.6412,5.6434,5.6471,5.6495,5.653,5.6609,5.6612,5.6646,5.6657,5.6666,5.6674,5.6716,5.6731,5.6573,5.6573,5.6573,0,0,5.6247,5.6266,5.6295,5.6347,5.6365,5.641,5.6362,5.6411,5.6444,5.6408,5.647,5.6478,5.6501,5.6573,5.6605,5.6582,5.6718,5.6675,5.6682,5.6685,5.6724,5.6739,5.6752,5.6578,5.6577,5.6576,0,0,5.6345,5.6365,5.6424,5.6444,5.6473,5.6475,5.6489,5.6512,5.6517,5.6579,5.6553,5.659,5.6655,5.6672,5.669,5.6796,5.6773,5.6807,5.6865,5.6906,5.6919,5.693,5.6967,5.6981,5.6815,5.6816,5.6816,0,5.6392,5.6462,5.6456,5.6508,5.6531,5.6504,5.6563,5.6581,5.6619,5.6634,5.6609,5.669,5.6703,5.6778,5.6805,5.682,5.6834,5.6804,5.6918,5.6929,5.6939,5.6974,5.6988,5.682,5.6819,5.6819,5.6818,0,5.6518,5.6566,5.661,5.6651,5.6678,5.6733,5.6733,5.6762,5.6752,5.6756,5.6818,5.6834,5.6871,5.6889,5.6878,5.6962,5.6947,5.692,5.6874,5.6958,5.6991,5.7004,5.6825,5.6824,5.6823,5.6822,0,0,5.6646,5.6685,5.6701,5.6719,5.675,5.6785,5.6838,5.6878,5.6902,5.6929,5.6971,5.7027,5.7003,5.7023,5.7014,5.705,5.7133,5.7018,5.7019,5.7038,5.7225,5.7245,5.7261,5.7118,5.7121,5.7123,5.7223,0,5.6746,5.6842,5.6838,5.6926,5.697,5.6946,5.6991,5.7014,5.7019,5.7054,5.7059,5.7099,5.7064,5.7075,5.711,5.7115,5.717,5.7108,5.7156,5.7158,5.7151,5.7279,5.73,5.7394,5.7236,5.7238,5.724,0,5.6875,5.691,5.7003,5.7028,5.7046,5.7087,5.7123,5.7159,5.7183,5.7184,5.7207,5.7193,5.7244,5.7197,5.7266,5.7224,5.7243,5.7249,5.7252,5.7256,5.7203,5.7285,5.7423,5.7438,5.726,5.7259,5.7257,0,5.6959,5.7028,5.7094,5.711,5.714,5.717,5.7184,5.7205,5.723,5.726,5.7275,5.731,5.7329,5.7356,5.735,5.7317,5.7421,5.7373,5.7421,5.7422,5.7443,5.7442,5.7587,5.7457,5.7457,5.7457,5.7456,0,5.707,5.7128,5.7132,5.7172,5.7235,5.723,5.7292,5.7302,5.7322,5.7361,5.7341,5.7378,5.7369,5.7405,5.7401,5.7459,5.7467,5.7468,5.7466,5.747,5.747,5.7481,5.7475,5.746,5.746,5.7459,5.7458,0,5.7174,5.718,5.7249,5.7273,5.7281,5.7326,5.7346,5.7382,5.7386,5.7436,5.7448,5.7453,5.7495,5.7492,5.7538,5.7535,5.7607,5.7597,5.7599,5.7597,5.7645,5.764,5.7802,5.7822,5.768,5.7681,5.7683,0,5.7244,5.7289,5.7319,5.7346,5.7362,5.7405,5.743,5.7426,5.7453,5.7484,5.7517,5.7557,5.7589,5.7656,5.7662,5.7697,5.7688,5.7742,5.7693,5.7695,5.7688,5.7686,5.7689,5.7751,5.7753,5.7754,5.7755,0,5.7368,5.7369,5.7409,5.7449,5.7481,5.7511,5.7539,5.7561,5.756,5.759,5.7635,5.766,5.7708,5.7748,5.7781,5.7792,5.7773,5.7771,5.7784,5.7788,5.7787,5.7788,5.7625,5.7767,5.7766,5.7765,5.7765,5.7764,5.7457,5.7496,5.7524,5.7568,5.7589,5.7616,5.7652,5.7662,5.77,5.7741,5.7735,5.7784,5.7806,5.785,5.7864,5.7901,5.7881,5.79,5.7904,5.7909,5.7914,5.7783,5.7907,5.7906,5.7906,5.7906,5.7906,0,5.758,5.7597,5.7638,5.768,5.7714,5.7697,5.7727,5.7756,5.78,5.7824,5.7857,5.7907,5.7946,5.7956,5.7993,5.802,5.8012,5.8029,5.8027,5.803,5.793,5.7915,5.8035,5.8035,5.8035,5.8035,5.8035,5.8035,5.7648,5.7712,5.7717,5.7791,5.7807,5.7857,5.7876,5.79,5.7919,5.7977,5.801,5.8018,5.8036,5.8074,5.8108,5.811,5.8124,5.8145,5.8143,5.8049,5.8036,5.8024,5.801,5.8148,5.8148,5.8239,5.824,5.8241]}]]